Date String (YYYY-MM-DD hh:mm:ss) UTC,Instrument flags,Ambient pressure (hPa),Sample flow (lpm),Bypass flow (lpm),Sample temperature (°C),Ambient temperature (°C),ASC tube jacket temperature (°C),LED temperature (°C),Box temperature (°C),Sample RH (%),Span deviation,Mass concentration (μg/m³),Mass concentration (μg/m³),Mass concentration (μg/m³)
DateTimeUTC,F1_M11,P_M11,Q1_M11,Q2_M11,T1_M11,T2_M11,T3_M11,T4_M11,T5_M11,U1_M11,ZSPAN_M11,X0_M11,X2_M11,X1_M11
2022-11-16 02:00:00,,0832.2,4.99,0.00,21.7,21.0,00.0,30.5,23.5,05.9,0000.0,0001.44,0001.03,0000.87
2022-11-16 02:01:00,,0832.3,5.01,0.00,21.7,20.6,00.0,30.5,23.4,05.9,0000.0,0001.49,0001.06,0000.90
2022-11-16 02:02:00,,0832.3,4.99,0.00,21.6,20.2,00.0,30.5,23.3,06.0,0000.0,0001.52,0001.09,0000.93
2022-11-16 02:03:00,,0832.3,5.00,0.00,21.5,19.9,00.0,30.5,23.2,06.0,0000.0,0001.50,0001.09,0000.95
2022-11-16 02:04:00,,0832.2,5.00,0.00,21.5,19.8,00.0,30.5,23.2,06.1,0000.0,0001.51,0001.11,0000.99
2022-11-16 02:05:00,,0832.3,5.00,0.00,21.5,19.8,00.0,30.5,23.2,06.1,0000.0,0001.56,0001.14,0001.02
2022-11-16 02:06:00,,0832.3,5.00,0.00,21.4,19.7,00.0,30.5,23.1,06.0,0000.0,0001.59,0001.17,0001.04
2022-11-16 02:07:00,,0832.3,4.99,0.00,21.4,19.7,00.0,30.5,23.0,06.1,0000.0,0001.56,0001.16,0001.05
2022-11-16 02:08:00,,0832.2,5.00,0.00,21.4,19.7,00.0,30.4,23.1,06.1,0000.0,0001.57,0001.16,0001.04
2022-11-16 02:09:00,,0832.2,5.01,0.00,21.4,19.7,00.0,30.4,23.1,06.1,0000.0,0001.64,0001.16,0001.05
2022-11-16 02:10:00,,0832.3,5.01,0.00,21.4,19.8,00.0,30.4,23.1,06.1,0000.0,0001.67,0001.16,0001.04
2022-11-16 02:11:00,,0832.2,5.00,0.00,21.4,20.4,00.0,30.4,23.2,06.1,0000.0,0001.68,0001.17,0001.05
2022-11-16 02:12:00,,0832.3,5.00,0.00,21.5,21.4,00.0,30.3,23.4,06.0,0000.0,0001.68,0001.17,0001.06
2022-11-16 02:13:00,,0832.3,4.99,0.00,21.6,21.8,00.0,30.4,23.6,06.1,0000.0,0001.67,0001.17,0001.06
2022-11-16 02:14:00,,0832.2,4.99,0.00,21.6,21.5,00.0,30.4,23.6,05.9,0000.0,0001.67,0001.17,0001.05
2022-11-16 02:15:00,,0832.3,5.00,0.00,21.7,21.2,00.0,30.5,23.6,05.8,0000.0,0001.65,0001.15,0001.04
2022-11-16 02:16:00,,0832.3,5.00,0.00,21.6,21.0,00.0,30.5,23.5,05.8,0000.0,0001.59,0001.12,0001.02
2022-11-16 02:17:00,,0832.3,5.01,0.00,21.6,20.7,00.0,30.5,23.4,05.8,0000.0,0001.51,0001.09,0001.01
2022-11-16 02:18:00,,0832.3,5.01,0.00,21.6,20.6,00.0,30.5,23.4,05.8,0000.0,0001.49,0001.07,0000.99
2022-11-16 02:19:00,,0832.3,4.99,0.00,21.6,20.5,00.0,30.5,23.4,05.8,0000.0,0001.49,0001.06,0000.99
2022-11-16 02:20:00,,0832.3,4.99,0.00,21.6,20.4,00.0,30.5,23.4,05.9,0000.0,0001.37,0001.05,0000.99
2022-11-16 02:21:00,,0832.2,5.00,0.00,21.6,20.3,00.0,30.5,23.4,06.0,0000.0,0001.32,0001.03,0000.99
2022-11-16 02:22:00,,0832.2,5.00,0.00,21.6,20.1,00.0,30.5,23.3,06.0,0000.0,0001.29,0001.03,0000.99
2022-11-16 02:23:00,,0832.2,5.00,0.00,21.5,19.9,00.0,30.5,23.2,05.9,0000.0,0001.28,0001.02,0000.98
2022-11-16 02:24:00,,0832.2,5.00,0.00,21.5,19.8,00.0,30.5,23.1,06.1,0000.0,0001.29,0001.01,0000.97
2022-11-16 02:25:00,,0832.2,5.00,0.00,21.4,19.7,00.0,30.5,23.1,05.9,0000.0,0001.31,0001.02,0000.96
2022-11-16 02:26:00,,0832.2,5.00,0.00,21.4,19.7,00.0,30.5,23.1,06.0,0000.0,0001.34,0001.05,0000.97
2022-11-16 02:27:00,,0832.2,5.01,0.00,21.4,19.9,00.0,30.4,23.2,06.3,0000.0,0001.38,0001.06,0000.98
2022-11-16 02:28:00,,0832.2,5.00,0.00,21.5,20.9,00.0,30.4,23.3,06.2,0000.0,0001.46,0001.09,0000.99
2022-11-16 02:29:00,,0832.3,5.00,0.00,21.6,21.7,00.0,30.4,23.6,06.0,0000.0,0001.52,0001.13,0001.01
2022-11-16 02:30:00,,0832.2,4.99,0.00,21.6,21.5,00.0,30.4,23.6,06.0,0000.0,0001.57,0001.14,0001.01
2022-11-16 02:31:00,,0832.2,5.00,0.00,21.6,20.9,00.0,30.5,23.5,05.8,0000.0,0001.60,0001.14,0001.01
2022-11-16 02:32:00,,0832.2,5.00,0.00,21.6,20.4,00.0,30.5,23.3,05.7,0000.0,0001.60,0001.14,0001.00
2022-11-16 02:33:00,,0832.2,4.99,0.00,21.5,20.0,00.0,30.5,23.2,05.9,0000.0,0001.61,0001.15,0001.01
2022-11-16 02:34:00,,0832.1,5.00,0.00,21.5,19.7,00.0,30.5,23.1,06.3,0000.0,0001.70,0001.18,0001.02
2022-11-16 02:35:00,,0832.2,5.00,0.00,21.4,19.7,00.0,30.5,23.1,06.3,0000.0,0001.73,0001.22,0001.05
2022-11-16 02:36:00,,0832.2,5.00,0.00,21.4,19.7,00.0,30.5,23.1,06.3,0000.0,0001.77,0001.23,0001.07
2022-11-16 02:37:00,,0832.2,5.00,0.00,21.4,19.7,00.0,30.4,23.2,06.4,0000.0,0001.77,0001.24,0001.09
2022-11-16 02:38:00,,0832.2,5.00,0.00,21.4,19.8,00.0,30.4,23.2,06.4,0000.0,0001.78,0001.27,0001.11
2022-11-16 02:39:00,,0832.2,5.01,0.00,21.4,19.9,00.0,30.4,23.2,06.3,0000.0,0001.78,0001.28,0001.13
2022-11-16 02:40:00,,0832.2,5.01,0.00,21.4,19.9,00.0,30.4,23.2,06.3,0000.0,0001.80,0001.28,0001.13
2022-11-16 02:41:00,,0832.2,4.99,0.00,21.4,19.9,00.0,30.4,23.2,06.3,0000.0,0001.86,0001.31,0001.15
2022-11-16 02:42:00,,0832.2,4.99,0.00,21.4,20.1,00.0,30.4,23.2,06.2,0000.0,0001.85,0001.33,0001.17
2022-11-16 02:43:00,,0832.2,5.01,0.00,21.5,20.9,00.0,30.3,23.3,06.0,0000.0,0001.89,0001.35,0001.19
2022-11-16 02:44:00,,0832.2,5.01,0.00,21.6,21.8,00.0,30.3,23.6,06.2,0000.0,0001.93,0001.37,0001.20
2022-11-16 02:45:00,,0832.2,4.99,0.00,21.6,21.5,00.0,30.4,23.6,06.5,0000.0,0002.57,0001.38,0001.22
2022-11-16 02:46:00,,0832.2,5.00,0.00,21.6,21.0,00.0,30.4,23.5,06.4,0000.0,0003.03,0001.38,0001.23
2022-11-16 02:47:00,,0832.1,5.00,0.00,21.6,20.5,00.0,30.4,23.3,06.4,0000.0,0003.04,0001.38,0001.24
2022-11-16 02:48:00,,0832.1,4.99,0.00,21.5,20.2,00.0,30.5,23.2,06.5,0000.0,0003.03,0001.38,0001.24
2022-11-16 02:49:00,,0832.2,5.00,0.00,21.5,20.0,00.0,30.5,23.2,06.5,0000.0,0002.99,0001.36,0001.24
2022-11-16 02:50:00,,0832.2,5.01,0.00,21.4,19.9,00.0,30.5,23.1,06.3,0000.0,0002.97,0001.35,0001.24
2022-11-16 02:51:00,,0832.2,5.01,0.00,21.4,19.7,00.0,30.4,23.0,06.3,0000.0,0002.91,0001.33,0001.24
2022-11-16 02:52:00,,0832.2,5.01,0.00,21.3,19.6,00.0,30.4,22.9,06.4,0000.0,0002.84,0001.31,0001.24
2022-11-16 02:53:00,,0832.3,5.01,0.00,21.3,19.5,00.0,30.4,22.9,06.3,0000.0,0002.85,0001.31,0001.24
2022-11-16 02:54:00,,0832.3,5.01,0.00,21.3,19.5,00.0,30.4,22.9,06.2,0000.0,0002.91,0001.34,0001.24
2022-11-16 02:55:00,,0832.3,5.00,0.00,21.2,19.5,00.0,30.3,22.9,06.4,0000.0,0002.92,0001.35,0001.25
2022-11-16 02:56:00,,0832.2,5.01,0.00,21.3,20.4,00.0,30.3,23.1,06.8,0000.0,0002.24,0001.37,0001.25
2022-11-16 02:57:00,,0832.2,5.00,0.00,21.4,21.5,00.0,30.3,23.3,06.4,0000.0,0001.77,0001.36,0001.25
2022-11-16 02:58:00,,0832.3,5.00,0.00,21.5,21.6,00.0,30.3,23.5,06.2,0000.0,0001.73,0001.34,0001.24
2022-11-16 02:59:00,,0832.2,4.99,0.00,21.5,21.2,00.0,30.3,23.4,06.1,0000.0,0001.75,0001.36,0001.25
